ZHONGXING-1D

Last updated on Sun Jan 18 2026 00:02:49 GMT+0000 (Coordinated Universal Time)

1 49505U 21114A 26017.53842263 -.00000318 00000+0 00000+0 0 9992 2 49505 0.0546 65.4843 0005051 325.0123 50.7113 1.00285446 15314
UTC large
Height (km)
Speed (km/s)
/
Latitude / Longitude
Inclination (degrees)
Orbital Period (minutes)
Azimuth
Elevation
Range (km)
Doppler Factor

Next 0 passes for location: London (51.5072 / 0.1276)

Sorry there are no passes over London.